Weather History for Whiting Fld NAS, FL

Change the Weather History Date:

Tuesday, January 8, 2013

  Actual Average Record
Temperature  
Mean Temperature 56 °F -  
Max Temperature 66 °F 59 °F 77 °F (2008)
Min Temperature 46 °F 41 °F 17 °F (2014)
Degree Days  
Heating Degree Days 9    
Growing Degree Days 6 (Base 50)    
Moisture  
Dew Point 46 °F    
Average Humidity 68    
Maximum Humidity 72    
Minimum Humidity 60    
Precipitation  
Precipitation 0.00 in - - ()
Sea Level Pressure  
Sea Level Pressure 30.18 in    
Wind  
Wind Speed 6 mph (East)    
Max Wind Speed 10 mph    
Max Gust Speed -    
Visibility 10 miles    
Events Rain    
Averages and records for this station are not official NWS values.
T = Trace of Precipitation, MM = Missing Value Source: NWS Daily Summary

Daily Weather History Graph

Daily Weather History Graph

Search for Another Location

Airport:

Trip Planner

Search our weather history database for the weather conditions in past years. The results will help you decide how hot, cold, wet, or windy it might be!

Date:

Astronomy

Jan. 08, 2013 Rise Set
Actual Time 6:46 AM CST 5:03 PM CST
Civil Twilight 6:20 AM CST 5:29 PM CST
Nautical Twilight 5:50 AM CST 5:59 PM CST
Astronomical Twilight 5:21 AM CST 6:28 PM CST
Moon 3:20 AM CST (1/8) 2:04 PM CST (1/8)
Length of Visible Light 11h 09m
Length of Day
10h 16m
Waning Crescent, 13% of the Moon is Illuminated
Jan 8
Waning Crescent
Jan 11
New
Jan 18
First Quarter
Jan 26
Full
Feb 3
Last Quarter

Hourly Weather History & Observations

Time (CST) Temp. Dew Point Humidity Pressure Visibility Wind Dir Wind Speed Gust Speed Precip Events Conditions
12:56 AM 46.9 °F 36.0 °F 66% 30.18 in 10.0 mi East 5.8 mph - 0.00 in Rain Light Rain
1:56 AM 46.9 °F 36.0 °F 66% 30.18 in 10.0 mi NE 3.5 mph - 0.00 in   Clear
2:56 AM 46.9 °F 37.0 °F 68% 30.17 in 10.0 mi ENE 4.6 mph - N/A   Overcast
3:56 AM 48.0 °F 37.9 °F 68% 30.17 in 10.0 mi East 4.6 mph - N/A   Mostly Cloudy
4:32 AM 48.2 °F 39.2 °F 71% 30.21 in 10.0 mi East 5.8 mph - N/A   Overcast
4:56 AM 48.9 °F 39.0 °F 69% 30.17 in 10.0 mi NE 4.6 mph - N/A   Overcast
5:56 AM 48.9 °F 39.9 °F 71% 30.19 in 7.0 mi ENE 4.6 mph - N/A   Mostly Cloudy
6:56 AM 50.0 °F 39.9 °F 68% 30.21 in 10.0 mi ENE 4.6 mph - N/A   Mostly Cloudy
7:56 AM 51.1 °F 41.0 °F 68% 30.22 in 9.0 mi East 8.1 mph - N/A   Mostly Cloudy
8:56 AM 54.0 °F 44.1 °F 69% 30.24 in 10.0 mi East 4.6 mph - N/A   Mostly Cloudy
9:19 AM 55.4 °F 44.6 °F 67% 30.28 in 10.0 mi East 6.9 mph - N/A   Overcast
9:56 AM 59.0 °F 46.0 °F 62% 30.24 in 10.0 mi ESE 6.9 mph - N/A   Overcast
10:56 AM 59.0 °F 46.9 °F 64% 30.23 in 10.0 mi ESE 4.6 mph - N/A   Overcast
11:56 AM 61.0 °F 48.9 °F 64% 30.20 in 10.0 mi East 4.6 mph - N/A   Overcast
12:56 PM 63.0 °F 50.0 °F 63% 30.18 in 10.0 mi SE 4.6 mph - N/A   Overcast
1:56 PM 63.0 °F 50.0 °F 63% 30.16 in 10.0 mi Variable 5.8 mph - N/A   Overcast
2:56 PM 66.0 °F 52.0 °F 60% 30.15 in 10.0 mi East 6.9 mph - N/A   Overcast
3:56 PM 64.9 °F 54.0 °F 68% 30.15 in 9.0 mi East 8.1 mph - N/A   Overcast
4:56 PM 63.0 °F 53.1 °F 70% 30.16 in 7.0 mi ENE 6.9 mph - N/A   Overcast
5:56 PM 62.1 °F 52.0 °F 70% 30.15 in 7.0 mi ENE 5.8 mph - N/A   Overcast
6:56 PM 61.0 °F 51.1 °F 70% 30.16 in 9.0 mi NE 5.8 mph - N/A   Overcast
7:56 PM 60.1 °F 51.1 °F 72% 30.16 in 10.0 mi ENE 3.5 mph - N/A   Overcast
8:56 PM 60.1 °F 51.1 °F 72% 30.14 in 10.0 mi ENE 6.9 mph - N/A   Overcast
9:56 PM 62.1 °F 53.1 °F 72% 30.16 in 10.0 mi East 5.8 mph - N/A   Overcast
10:56 PM 64.0 °F 54.0 °F 70% 30.16 in 10.0 mi East 10.4 mph - N/A   Overcast
11:56 PM 64.0 °F 54.0 °F 70% 30.17 in 10.0 mi East 8.1 mph - N/A   Overcast